When you browse on this site, cookies collect data to enhance your experience and personalize the content and advertising you see.
Visit our Privacy Policy to learn more. By continuing to use the site, you agree to this use of cookies and data.
  • In Latvia
  • List of Countries
  • For 7 days
  • Water Temperature
  • Satellite Maps
  • Weather Map
  • Weather Widgets
  • user-avatar
    Login

    Hourly Weather Ahmatov

    Today, 20 June, Thursday

    Time Temperature Precipitation Wind Pressure Humidity
    00:00 +21°C° 0 mm 3 mps 756 mmHg 68%
    01:00 +21°C° 0 mm 3 mps 756 mmHg 71%
    02:00 +20°C° 0 mm 3 mps 756 mmHg 73%
    03:00 +19°C° 0 mm 3 mps 757 mmHg 76%
    04:00 +20°C° 0 mm 3 mps 757 mmHg 73%
    05:00 +21°C° 0 mm 3 mps 757 mmHg 71%
    06:00 +22°C° 0 mm 3 mps 757 mmHg 69%
    07:00 +25°C° 0 mm 3 mps 758 mmHg 62%
    08:00 +26°C° 0 mm 4 mps 758 mmHg 55%
    09:00 +28°C° 0 mm 4 mps 758 mmHg 48%
    10:00 +29°C° 0 mm 4 mps 758 mmHg 43%
    11:00 +30°C° 0 mm 4 mps 758 mmHg 38%
    12:00 +32°C° 0 mm 5 mps 758 mmHg 34%
    13:00 +32°C° 0 mm 5 mps 758 mmHg 33%
    14:00 +32°C° 0 mm 5 mps 757 mmHg 32%
    15:00 +33°C° 0 mm 5 mps 757 mmHg 32%
    16:00 +32°C° 0 mm 5 mps 757 mmHg 34%
    17:00 +30°C° 0 mm 5 mps 757 mmHg 37%
    18:00 +30°C° 0 mm 5 mps 757 mmHg 40%
    19:00 +28°C° 0 mm 5 mps 758 mmHg 45%
    20:00 +26°C° 0 mm 4 mps 758 mmHg 51%
    21:00 +25°C° 0 mm 4 mps 758 mmHg 56%
    22:00 +23°C° 0 mm 4 mps 759 mmHg 60%
    23:00 +22°C° 0 mm 4 mps 759 mmHg 63%

    Tomorrow, 21 June, Friday

    Time Temperature Precipitation Wind Pressure Humidity
    00:00 +22°C° 0 mm 4 mps 759 mmHg 66%
    01:00 +21°C° 0 mm 4 mps 759 mmHg 69%
    02:00 +20°C° 0 mm 4 mps 759 mmHg 72%
    03:00 +20°C° 0 mm 4 mps 760 mmHg 75%
    04:00 +21°C° 0 mm 4 mps 760 mmHg 73%
    05:00 +22°C° 0 mm 4 mps 760 mmHg 70%
    06:00 +22°C° 0 mm 5 mps 760 mmHg 67%
    07:00 +25°C° 0 mm 5 mps 760 mmHg 60%
    08:00 +27°C° 0 mm 5 mps 761 mmHg 52%
    09:00 +28°C° 0 mm 6 mps 761 mmHg 45%
    10:00 +29°C° 0 mm 6 mps 761 mmHg 40%
    11:00 +32°C° 0 mm 6 mps 761 mmHg 34%
    12:00 +33°C° 0 mm 5 mps 760 mmHg 29%
    13:00 +33°C° 0 mm 5 mps 760 mmHg 29%
    14:00 +33°C° 0 mm 5 mps 760 mmHg 28%
    15:00 +34°C° 0 mm 5 mps 760 mmHg 28%
    16:00 +33°C° 0 mm 5 mps 760 mmHg 31%
    17:00 +32°C° 0 mm 5 mps 760 mmHg 33%
    18:00 +32°C° 0 mm 5 mps 760 mmHg 36%
    19:00 +29°C° 0 mm 5 mps 760 mmHg 41%
    20:00 +27°C° 0 mm 4 mps 761 mmHg 46%
    21:00 +26°C° 0 mm 4 mps 761 mmHg 51%
    22:00 +25°C° 0 mm 4 mps 761 mmHg 53%
    23:00 +23°C° 0 mm 4 mps 761 mmHg 56%

    Day after tomorrow, 22 June, Saturday

    Time Temperature Precipitation Wind Pressure Humidity
    00:00 +22°C° 0 mm 3 mps 761 mmHg 58%
    01:00 +22°C° 0 mm 3 mps 762 mmHg 60%
    02:00 +21°C° 0 mm 3 mps 762 mmHg 63%
    03:00 +21°C° 0 mm 3 mps 762 mmHg 66%
    04:00 +22°C° 0 mm 4 mps 762 mmHg 64%
    05:00 +23°C° 0 mm 4 mps 762 mmHg 63%
    06:00 +25°C° 0 mm 4 mps 762 mmHg 61%
    07:00 +26°C° 0 mm 4 mps 763 mmHg 55%
    08:00 +28°C° 0 mm 4 mps 763 mmHg 49%
    09:00 +30°C° 0 mm 4 mps 763 mmHg 43%
    10:00 +30°C° 0 mm 4 mps 763 mmHg 39%
    11:00 +31°C° 0 mm 3 mps 762 mmHg 35%
    12:00 +33°C° 0 mm 3 mps 762 mmHg 32%
    13:00 +33°C° 0 mm 3 mps 762 mmHg 30%
    14:00 +34°C° 0 mm 3 mps 762 mmHg 29%
    15:00 +34°C° 0 mm 2 mps 762 mmHg 27%
    16:00 +34°C° 0 mm 3 mps 761 mmHg 29%
    17:00 +33°C° 0 mm 3 mps 761 mmHg 30%
    18:00 +33°C° 0 mm 4 mps 761 mmHg 31%
    19:00 +30°C° 0 mm 3 mps 761 mmHg 34%
    20:00 +28°C° 0 mm 3 mps 762 mmHg 38%
    21:00 +26°C° 0 mm 3 mps 762 mmHg 42%
    22:00 +26°C° 0 mm 3 mps 762 mmHg 42%
    23:00 +25°C° 0 mm 3 mps 762 mmHg 42%

    23 June, Sunday

    Time Temperature Precipitation Wind Pressure Humidity
    00:00 +24°C° 0 mm 3 mps 762 mmHg 42%
    01:00 +22°C° 0 mm 3 mps 762 mmHg 44%
    02:00 +22°C° 0 mm 3 mps 762 mmHg 45%
    03:00 +21°C° 0 mm 3 mps 762 mmHg 46%
    04:00 +22°C° 0 mm 3 mps 762 mmHg 46%
    05:00 +24°C° 0 mm 3 mps 762 mmHg 46%
    06:00 +25°C° 0 mm 3 mps 762 mmHg 45%
    07:00 +27°C° 0 mm 3 mps 762 mmHg 41%
    08:00 +29°C° 0 mm 3 mps 762 mmHg 37%
    09:00 +30°C° 0 mm 4 mps 762 mmHg 32%
    10:00 +32°C° 0 mm 4 mps 762 mmHg 31%
    11:00 +33°C° 0 mm 4 mps 762 mmHg 29%
    12:00 +34°C° 0 mm 4 mps 762 mmHg 27%
    13:00 +35°C° 0 mm 4 mps 761 mmHg 26%
    14:00 +35°C° 0 mm 3 mps 761 mmHg 25%
    15:00 +35°C° 0 mm 3 mps 761 mmHg 24%
    16:00 +35°C° 0 mm 3 mps 761 mmHg 25%
    17:00 +35°C° 0 mm 3 mps 760 mmHg 27%
    18:00 +34°C° 0 mm 3 mps 760 mmHg 28%
    19:00 +31°C° 0 mm 3 mps 760 mmHg 31%
    20:00 +29°C° 0 mm 3 mps 760 mmHg 35%
    21:00 +27°C° 0 mm 3 mps 761 mmHg 39%
    22:00 +27°C° 0 mm 3 mps 761 mmHg 42%
    23:00 +26°C° 0 mm 4 mps 761 mmHg 46%

    24 June, Monday

    Time Temperature Precipitation Wind Pressure Humidity
    00:00 +25°C° 0 mm 4 mps 761 mmHg 50%
    01:00 +25°C° 0 mm 4 mps 761 mmHg 52%
    02:00 +24°C° 0 mm 3 mps 761 mmHg 54%
    03:00 +24°C° 0 mm 3 mps 761 mmHg 56%
    04:00 +25°C° 0 mm 3 mps 761 mmHg 55%
    05:00 +26°C° 0 mm 3 mps 761 mmHg 54%
    06:00 +26°C° 0 mm 3 mps 761 mmHg 53%
    07:00 +28°C° 0 mm 3 mps 760 mmHg 47%
    08:00 +30°C° 0 mm 3 mps 760 mmHg 40%
    09:00 +33°C° 0 mm 3 mps 760 mmHg 33%
    10:00 +34°C° 0 mm 3 mps 760 mmHg 31%
    11:00 +35°C° 0 mm 2 mps 760 mmHg 28%
    12:00 +36°C° 0 mm 2 mps 760 mmHg 25%
    13:00 +36°C° 0 mm 2 mps 759 mmHg 24%
    14:00 +37°C° 0 mm 2 mps 759 mmHg 24%
    15:00 +37°C° 0 mm 2 mps 759 mmHg 23%
    16:00 +37°C° 0 mm 2 mps 759 mmHg 25%
    17:00 +36°C° 0 mm 3 mps 758 mmHg 27%
    18:00 +36°C° 0 mm 3 mps 758 mmHg 29%
    19:00 +34°C° 0 mm 4 mps 758 mmHg 33%
    20:00 +32°C° 0 mm 5 mps 759 mmHg 38%
    21:00 +29°C° 0 mm 6 mps 759 mmHg 43%
    22:00 +29°C° 0 mm 5 mps 759 mmHg 44%
    23:00 +29°C° 0 mm 5 mps 759 mmHg 46%

    25 June, Tuesday

    Time Temperature Precipitation Wind Pressure Humidity
    00:00 +28°C° 0 mm 5 mps 759 mmHg 48%
    01:00 +28°C° 0 mm 5 mps 759 mmHg 50%
    02:00 +28°C° 0 mm 4 mps 758 mmHg 51%
    03:00 +27°C° 0 mm 4 mps 758 mmHg 53%
    04:00 +27°C° 0 mm 4 mps 758 mmHg 53%
    05:00 +28°C° 0 mm 4 mps 758 mmHg 54%
    06:00 +28°C° 0 mm 4 mps 758 mmHg 54%
    07:00 +29°C° 0 mm 4 mps 758 mmHg 53%
    08:00 +29°C° 0 mm 5 mps 758 mmHg 51%
    09:00 +30°C° 0 mm 5 mps 758 mmHg 49%
    10:00 +30°C° 0 mm 5 mps 757 mmHg 48%
    11:00 +30°C° 0 mm 6 mps 757 mmHg 47%
    12:00 +32°C° 0 mm 6 mps 757 mmHg 47%
    13:00 +30°C° 0.1 mm 6 mps 757 mmHg 49%
    14:00 +30°C° 0.1 mm 6 mps 757 mmHg 52%
    15:00 +29°C° 0.1 mm 5 mps 756 mmHg 54%
    16:00 +28°C° 0 mm 6 mps 756 mmHg 58%
    17:00 +27°C° 0 mm 7 mps 755 mmHg 61%
    18:00 +26°C° 0 mm 8 mps 755 mmHg 64%
    19:00 +24°C° 0 mm 7 mps 755 mmHg 66%
    20:00 +25°C° 0 mm 5 mps 755 mmHg 67%
    21:00 +24°C° 0 mm 3 mps 755 mmHg 68%
    22:00 +24°C° 0.1 mm 3 mps 755 mmHg 71%
    23:00 +22°C° 0.1 mm 3 mps 755 mmHg 73%
    Show more